User: anonymous   Login
Location: Unspecified
(0.0000°N, 0.0000°E)
Time: 05:16:47
(UTC+00:00)
Language:

Elektron 1 - Orbit

View from above orbital plane
View from above orbital plane
View from above satellite
View from above satellite

Ground track
Ground track

The orbit data is extracted from the following two-line orbital elements,

1   746U 64006A   18147.50110844 -.00000869 +00000-0 -22626-3 0  9993
2   746 060.8416 182.8193 3029561 194.8547 153.9214 09.03470070800733
Epoch (UTC): 27 May 2018 12:01:35
Eccentricity: 0.3029561
inclination: 60.8416°
perigee height: 409 km
apogee height: 6309 km
right ascension of ascending node: 182.8193°
argument of perigee: 194.8547°
revolutions per day: 9.03470070
mean anomaly at epoch: 153.9214°
orbit number at epoch: 80073

The dashed part of the orbit path shows where the satellite is in the earth's shadow,  

DLR